When you browse on this site, cookies collect data to enhance your experience and personalize the content and advertising you see.
Visit our Privacy Policy to learn more. By continuing to use the site, you agree to this use of cookies and data.
EN

Hourly Weather Kiel

Today, 5 July, Sunday

Time Temperature Precipitation Wind Pressure Humidity
00:00 +16°C° 0.4 mm 6 mps 754 mmHg 96%
01:00 +17°C° 0.4 mm 6 mps 754 mmHg 96%
02:00 +17°C° 0.1 mm 7 mps 753 mmHg 96%
03:00 +17°C° 0.1 mm 7 mps 753 mmHg 96%
04:00 +17°C° 0.1 mm 7 mps 752 mmHg 96%
05:00 +17°C° 0.1 mm 7 mps 752 mmHg 95%
06:00 +17°C° 0.1 mm 8 mps 752 mmHg 94%
07:00 +17°C° 0.1 mm 8 mps 751 mmHg 93%
08:00 +17°C° 0.1 mm 9 mps 752 mmHg 92%
09:00 +17°C° 0.1 mm 9 mps 752 mmHg 92%
10:00 +17°C° 0.1 mm 9 mps 752 mmHg 91%
11:00 +18°C° 0.4 mm 10 mps 752 mmHg 89%
12:00 +18°C° 0.4 mm 10 mps 752 mmHg 87%
13:00 +18°C° 0.4 mm 10 mps 752 mmHg 86%
14:00 +18°C° 0.2 mm 11 mps 752 mmHg 80%
15:00 +18°C° 0.2 mm 11 mps 752 mmHg 74%
16:00 +18°C° 0.2 mm 11 mps 752 mmHg 68%
17:00 +18°C° 0 mm 10 mps 753 mmHg 68%
18:00 +17°C° 0 mm 9 mps 753 mmHg 67%
19:00 +16°C° 0 mm 9 mps 753 mmHg 67%
20:00 +15°C° 0 mm 8 mps 753 mmHg 68%
21:00 +14°C° 0 mm 7 mps 753 mmHg 70%
22:00 +13°C° 0 mm 6 mps 753 mmHg 71%
23:00 +13°C° 0 mm 6 mps 753 mmHg 74%

Tomorrow, 6 July, Monday

Time Temperature Precipitation Wind Pressure Humidity
00:00 +11°C° 0 mm 6 mps 753 mmHg 77%
01:00 +11°C° 0 mm 6 mps 753 mmHg 80%
02:00 +11°C° 0.2 mm 6 mps 753 mmHg 82%
03:00 +11°C° 0.2 mm 7 mps 752 mmHg 84%
04:00 +11°C° 0.2 mm 7 mps 752 mmHg 85%
05:00 +11°C° 0.2 mm 7 mps 752 mmHg 84%
06:00 +12°C° 0.2 mm 8 mps 752 mmHg 83%
07:00 +13°C° 0.2 mm 8 mps 752 mmHg 82%
08:00 +13°C° 0.3 mm 9 mps 753 mmHg 80%
09:00 +15°C° 0.3 mm 9 mps 753 mmHg 78%
10:00 +15°C° 0.3 mm 9 mps 753 mmHg 76%
11:00 +16°C° 0.5 mm 9 mps 753 mmHg 74%
12:00 +16°C° 0.5 mm 9 mps 754 mmHg 73%
13:00 +16°C° 0.5 mm 9 mps 754 mmHg 72%
14:00 +16°C° 0.5 mm 9 mps 755 mmHg 73%
15:00 +16°C° 0.5 mm 8 mps 755 mmHg 74%
16:00 +16°C° 0.5 mm 8 mps 756 mmHg 75%
17:00 +15°C° 0.2 mm 7 mps 756 mmHg 76%
18:00 +15°C° 0.2 mm 7 mps 757 mmHg 78%
19:00 +14°C° 0.2 mm 6 mps 757 mmHg 79%
20:00 +13°C° 0.1 mm 6 mps 758 mmHg 83%
21:00 +11°C° 0.1 mm 6 mps 758 mmHg 86%
22:00 +10°C° 0.1 mm 5 mps 759 mmHg 89%
23:00 +9°C° 0 mm 5 mps 759 mmHg 88%

Day after tomorrow, 7 July, Tuesday

Time Temperature Precipitation Wind Pressure Humidity
00:00 +9°C° 0 mm 6 mps 760 mmHg 87%
01:00 +9°C° 0 mm 6 mps 760 mmHg 86%
02:00 +8°C° 0 mm 5 mps 760 mmHg 87%
03:00 +8°C° 0 mm 5 mps 760 mmHg 87%
04:00 +8°C° 0 mm 5 mps 761 mmHg 87%
05:00 +9°C° 0 mm 5 mps 761 mmHg 82%
06:00 +12°C° 0 mm 5 mps 761 mmHg 78%
07:00 +13°C° 0 mm 5 mps 762 mmHg 73%
08:00 +14°C° 0.1 mm 5 mps 762 mmHg 72%
09:00 +14°C° 0.1 mm 6 mps 762 mmHg 71%
10:00 +15°C° 0.1 mm 6 mps 762 mmHg 71%
11:00 +15°C° 0.1 mm 6 mps 762 mmHg 69%
12:00 +16°C° 0.1 mm 6 mps 761 mmHg 68%
13:00 +16°C° 0.1 mm 7 mps 761 mmHg 66%
14:00 +16°C° 0.1 mm 7 mps 761 mmHg 64%
15:00 +17°C° 0.1 mm 6 mps 760 mmHg 63%
16:00 +17°C° 0.1 mm 6 mps 760 mmHg 61%
17:00 +16°C° 0.3 mm 6 mps 760 mmHg 70%
18:00 +14°C° 0.3 mm 6 mps 759 mmHg 78%
19:00 +13°C° 0.3 mm 6 mps 759 mmHg 87%
20:00 +13°C° 0 mm 5 mps 759 mmHg 87%
21:00 +12°C° 0 mm 5 mps 759 mmHg 88%
22:00 +12°C° 0 mm 4 mps 759 mmHg 89%
23:00 +11°C° 0.1 mm 4 mps 759 mmHg 90%

8 July, Wednesday

Time Temperature Precipitation Wind Pressure Humidity
00:00 +11°C° 0.1 mm 4 mps 759 mmHg 91%
01:00 +11°C° 0.1 mm 4 mps 759 mmHg 92%
02:00 +11°C° 0 mm 4 mps 759 mmHg 92%
03:00 +11°C° 0 mm 4 mps 759 mmHg 91%
04:00 +11°C° 0 mm 4 mps 758 mmHg 91%
05:00 +12°C° 0.1 mm 3 mps 759 mmHg 91%
06:00 +12°C° 0.1 mm 3 mps 759 mmHg 90%
07:00 +12°C° 0.1 mm 3 mps 759 mmHg 90%
08:00 +13°C° 0.1 mm 3 mps 759 mmHg 88%
09:00 +13°C° 0.1 mm 3 mps 759 mmHg 86%
10:00 +15°C° 0.1 mm 2 mps 759 mmHg 84%
11:00 +16°C° 0.3 mm 2 mps 760 mmHg 80%
12:00 +17°C° 0.3 mm 3 mps 760 mmHg 76%
13:00 +18°C° 0.3 mm 3 mps 760 mmHg 73%
14:00 +18°C° 0.2 mm 3 mps 760 mmHg 70%
15:00 +18°C° 0.2 mm 4 mps 760 mmHg 67%
16:00 +17°C° 0.2 mm 5 mps 760 mmHg 65%
17:00 +17°C° 0 mm 5 mps 761 mmHg 66%
18:00 +16°C° 0 mm 5 mps 761 mmHg 68%
19:00 +15°C° 0 mm 5 mps 761 mmHg 69%
20:00 +13°C° 0 mm 4 mps 762 mmHg 75%
21:00 +11°C° 0 mm 4 mps 762 mmHg 81%
22:00 +10°C° 0 mm 4 mps 762 mmHg 87%
23:00 +9°C° 0 mm 3 mps 763 mmHg 88%

9 July, Thursday

Time Temperature Precipitation Wind Pressure Humidity
00:00 +9°C° 0 mm 3 mps 763 mmHg 90%
01:00 +8°C° 0 mm 3 mps 763 mmHg 91%
02:00 +8°C° 0 mm 3 mps 763 mmHg 91%
03:00 +8°C° 0 mm 3 mps 763 mmHg 91%
04:00 +8°C° 0 mm 2 mps 763 mmHg 91%
05:00 +9°C° 0 mm 3 mps 763 mmHg 85%
06:00 +11°C° 0 mm 3 mps 763 mmHg 80%
07:00 +12°C° 0 mm 3 mps 763 mmHg 74%
08:00 +13°C° 0 mm 3 mps 763 mmHg 70%
09:00 +14°C° 0 mm 3 mps 763 mmHg 66%
10:00 +16°C° 0 mm 3 mps 763 mmHg 61%
11:00 +17°C° 0 mm 3 mps 763 mmHg 61%
12:00 +17°C° 0 mm 3 mps 763 mmHg 60%
13:00 +18°C° 0 mm 3 mps 763 mmHg 59%
14:00 +18°C° 0 mm 3 mps 762 mmHg 58%
15:00 +19°C° 0 mm 3 mps 762 mmHg 57%
16:00 +19°C° 0 mm 3 mps 761 mmHg 56%
17:00 +19°C° 0 mm 3 mps 761 mmHg 61%
18:00 +18°C° 0 mm 2 mps 760 mmHg 66%
19:00 +17°C° 0 mm 2 mps 760 mmHg 71%
20:00 +17°C° 0 mm 3 mps 759 mmHg 70%
21:00 +17°C° 0 mm 3 mps 759 mmHg 69%
22:00 +15°C° 0 mm 4 mps 759 mmHg 68%
23:00 +15°C° 0 mm 4 mps 758 mmHg 68%

10 July, Friday

Time Temperature Precipitation Wind Pressure Humidity
00:00 +15°C° 0 mm 5 mps 757 mmHg 67%
01:00 +15°C° 0 mm 6 mps 756 mmHg 66%
02:00 +15°C° 0.1 mm 6 mps 756 mmHg 71%
03:00 +15°C° 0.1 mm 7 mps 755 mmHg 75%
04:00 +15°C° 0.1 mm 7 mps 754 mmHg 80%
05:00 +15°C° 0.2 mm 7 mps 753 mmHg 81%
06:00 +16°C° 0.2 mm 8 mps 753 mmHg 83%
07:00 +16°C° 0.2 mm 8 mps 753 mmHg 85%
08:00 +17°C° 0.2 mm 9 mps 753 mmHg 78%
09:00 +17°C° 0.2 mm 9 mps 753 mmHg 71%
10:00 +17°C° 0.2 mm 10 mps 753 mmHg 65%
11:00 +17°C° 0.1 mm 10 mps 753 mmHg 65%
12:00 +17°C° 0.1 mm 10 mps 752 mmHg 65%
13:00 +17°C° 0.1 mm 11 mps 752 mmHg 65%
14:00 +16°C° 0 mm 11 mps 752 mmHg 66%
15:00 +16°C° 0 mm 11 mps 752 mmHg 67%
16:00 +16°C° 0 mm 11 mps 752 mmHg 69%
17:00 +16°C° 0.1 mm 11 mps 752 mmHg 72%
18:00 +16°C° 0.1 mm 10 mps 752 mmHg 75%
19:00 +16°C° 0.1 mm 10 mps 752 mmHg 79%
20:00 +14°C° 0.1 mm 10 mps 752 mmHg 78%
21:00 +14°C° 0.1 mm 10 mps 752 mmHg 77%
22:00 +13°C° 0.1 mm 10 mps 753 mmHg 76%
23:00 +13°C° 0.2 mm 10 mps 753 mmHg 79%
Show more